Preview of NWS' New Version of Forecast
This preview is not operational and should not be used for support decisions.

Regional Weather Roundup (RWR)

Issued by National Weather Service (NWS)

                            
000
ASUS45 KCYS 201910
RWRWY 

WYOMING REGIONAL WEATHER ROUNDUP
NATIONAL WEATHER SERVICE CHEYENNE WY
1200 PM MST WED FEB 20 2019

NOTE:  "FAIR" INDICATES FEW OR NO CLOUDS BELOW 12,000 FEET
WITH NO SIGNIFICANT WEATHER AND/OR OBSTRUCTIONS TO VISIBILITY.

WYZ001-202000-
YELLOWSTONE NATIONAL PARK
  
CITY           SKY/WX    TMP DP  RH WIND       PRES   REMARKS
LK YELLOWSTONE   N/A      7   2  80 CALM      29.49S                  
W YELLOWSTONE  NOT AVBL                                               

$$
WYZ002>013-054>058-071-098>099-202000-
NORTHERN WYOMING
  
CITY           SKY/WX    TMP DP  RH WIND       PRES   REMARKS
JACKSON        LGT SNOW  12   1  62 CALM      29.58S                  
CODY           FAIR      27   5  39 NE10      29.54S WCI  17          
GREYBULL       CLOUDY    19   7  59 S6        29.63S WCI  11          
WORLAND        FAIR      18   8  65 NE3       29.61S                  
SHERIDAN       FAIR      26   8  46 NW9       29.57S WCI  17          
BUFFALO        FAIR      27   2  34 N6        29.51R WCI  20          
GILLETTE       FAIR      22   5  48 W13       29.55R WCI  10          
HULETT         FAIR      19   5  53 MISG      29.55S                  
NEWCASTLE        N/A     19   3  49 NW5       29.59  WCI  13          

$$
WYZ014>020-022>026-101>103-202000-
CENTRAL WYOMING
  
CITY           SKY/WX    TMP DP  RH WIND       PRES   REMARKS
BIG PINEY      CLOUDY     0  -7  72 E5        29.58S WCI -10          
PINEDALE       CLOUDY     1  -4  78 CALM      29.59  HAZE             
DUBOIS         MOCLDY    18   0  45 W14G20    29.45  WCI   4          
LANDER         PTSUNNY   21   0  39 CALM      29.54R                  
RIVERTON       FAIR      18   1  47 E6        29.55S WCI  10          
CASPER         FAIR      21   5  50 SW20G28   29.56S WCI   6          
DOUGLAS        FAIR      26   4  38 W21G28    29.56S WCI  12          

$$
WYZ021-027>030-104>119-202000-
SOUTHERN WYOMING
  
CITY           SKY/WX    TMP DP  RH WIND       PRES   REMARKS
EVANSTON       CLOUDY    13   5  70 SW17      29.59S WCI  -4          
KEMMERER       FAIR      18   5  57 SW13      29.56S WCI   4          
ROCK SPRINGS   PTSUNNY   16   7  67 W23G31    29.59F WCI  -2          
DIXON          CLOUDY    17   5  59 S21G26    29.68S WCI   0          
RAWLINS        CLOUDY    16   6  65 SW26G33   29.56S WCI  -3          
SARATOGA       FAIR      18   5  57 SW17      29.58F WCI   2          
LARAMIE        CLOUDY    18   2  49 W33G46    29.49F WCI  -2          
CHEYENNE       FAIR      23   1  38 W22G32    29.53R WCI   8          
TORRINGTON     FAIR      30   5  34 W14       29.57F WCI  19          
PINE BLUFFS    FAIR      30   0  27 NW26G36   29.57S WCI  16          

$$